ITY2019 NFTF-NZAA

Flight info

Callsign ITY2019
Flight time N/A
Altitude 37000
Route 26S179E 29S177E/N0466F370 DCT AGREX
Aircraft B738/M-SDE2E3FGHIRWXY/LB1

Departure

Time 2026-04-24 15:33
Airport Fua'amotu International Airport (NFTF)

Arrival

Time N/A
Airport Auckland International Airport (NZAA)
Time Latitude Longitude Altitude Speed Heading
2026-04-24 15:00 -21.24241 -175.14150 92 ft 0 kts 75°
2026-04-24 15:19 -21.24243 -175.14162 94 ft 2 kts 78°
2026-04-24 15:19 -21.24246 -175.14175 93 ft 2 kts 81°
2026-04-24 15:19 -21.24248 -175.14189 91 ft 2 kts 86°
2026-04-24 15:20 -21.24248 -175.14201 92 ft 2 kts 96°
2026-04-24 15:20 -21.24246 -175.14212 92 ft 1 kts 107°
2026-04-24 15:20 -21.24242 -175.14223 91 ft 2 kts 118°
2026-04-24 15:20 -21.24237 -175.14232 93 ft 1 kts 123°
2026-04-24 15:21 -21.24233 -175.14238 94 ft 1 kts 124°
2026-04-24 15:21 -21.24230 -175.14243 93 ft 1 kts 124°
2026-04-24 15:21 -21.24227 -175.14248 90 ft 1 kts 123°
2026-04-24 15:21 -21.24225 -175.14251 93 ft 0 kts 122°
2026-04-24 15:22 -21.24226 -175.14250 90 ft 1 kts 122°
2026-04-24 15:23 -21.24264 -175.14232 93 ft 4 kts 188°
2026-04-24 15:23 -21.24310 -175.14255 93 ft 4 kts 211°
2026-04-24 15:23 -21.24330 -175.14269 95 ft 3 kts 212°
2026-04-24 15:24 -21.24389 -175.14311 98 ft 3 kts 211°
2026-04-24 15:25 -21.24420 -175.14331 102 ft 3 kts 213°
2026-04-24 15:25 -21.24425 -175.14410 101 ft 10 kts 301°
2026-04-24 15:26 -21.24242 -175.14722 102 ft 16 kts 301°
2026-04-24 15:27 -21.24080 -175.15001 99 ft 14 kts 301°
2026-04-24 15:27 -21.23937 -175.15247 100 ft 12 kts 302°
2026-04-24 15:28 -21.23763 -175.15543 103 ft 11 kts 302°
2026-04-24 15:29 -21.23684 -175.15678 104 ft 10 kts 302°
2026-04-24 15:30 -21.23520 -175.15934 102 ft 17 kts 326°
2026-04-24 15:31 -21.23477 -175.16033 102 ft 0 kts 122°
2026-04-24 15:32 -21.24354 -175.14530 110 ft 157 kts 121°
2026-04-24 15:33 -21.26716 -175.10459 2432 ft 189 kts 121°
2026-04-24 15:33 -21.29162 -175.06284 3381 ft 250 kts 120°
2026-04-24 15:34 -21.31060 -175.03040 4825 ft 262 kts 123°
2026-04-24 15:35 -21.35485 -175.01294 6859 ft 279 kts 193°
2026-04-24 15:35 -21.38600 -175.03691 8428 ft 282 kts 227°
2026-04-24 15:35 -21.39908 -175.05275 9216 ft 283 kts 228°
2026-04-24 15:36 -21.41189 -175.06866 10100 ft 280 kts 229°
2026-04-24 15:36 -21.43893 -175.10230 10652 ft 320 kts 229°
2026-04-24 15:36 -21.45400 -175.12095 10801 ft 341 kts 229°
2026-04-24 15:37 -21.47004 -175.14073 10933 ft 360 kts 229°
2026-04-24 15:37 -21.48662 -175.16112 11111 ft 374 kts 229°
2026-04-24 15:37 -21.50399 -175.18244 11423 ft 383 kts 229°
2026-04-24 15:37 -21.52164 -175.20406 11906 ft 387 kts 229°
2026-04-24 15:38 -21.53936 -175.22575 12530 ft 386 kts 230°
2026-04-24 15:38 -21.55725 -175.24768 12844 ft 395 kts 230°
2026-04-24 15:38 -21.57547 -175.26999 13362 ft 397 kts 229°
2026-04-24 15:38 -21.59382 -175.29248 13835 ft 401 kts 231°
2026-04-24 15:39 -21.61227 -175.31508 14301 ft 404 kts 229°
2026-04-24 15:39 -21.63092 -175.33792 14721 ft 408 kts 230°
2026-04-24 15:39 -21.64974 -175.36100 15118 ft 413 kts 230°
2026-04-24 15:39 -21.66877 -175.38435 15563 ft 416 kts 231°
2026-04-24 15:40 -21.68787 -175.40780 15985 ft 419 kts 230°
2026-04-24 15:40 -21.70689 -175.43119 16405 ft 422 kts 231°
2026-04-24 15:40 -21.72626 -175.45503 16860 ft 424 kts 231°
2026-04-24 15:40 -21.74572 -175.47895 17301 ft 426 kts 231°
2026-04-24 15:41 -21.76537 -175.50310 17702 ft 429 kts 231°
2026-04-24 15:41 -21.78509 -175.52731 18111 ft 432 kts 230°
2026-04-24 15:41 -21.80499 -175.55181 18433 ft 436 kts 231°
2026-04-24 15:41 -21.82500 -175.57644 18806 ft 437 kts 231°
2026-04-24 15:42 -21.84503 -175.60112 19195 ft 438 kts 231°
2026-04-24 15:42 -21.86514 -175.62592 19544 ft 440 kts 231°
2026-04-24 15:42 -21.88513 -175.65056 19876 ft 442 kts 231°
2026-04-24 15:42 -21.90537 -175.67552 20209 ft 443 kts 231°
2026-04-24 15:43 -21.92572 -175.70064 20527 ft 445 kts 231°
2026-04-24 15:43 -21.94617 -175.72590 20836 ft 447 kts 231°
2026-04-24 15:43 -21.96665 -175.75120 21145 ft 449 kts 231°
2026-04-24 15:43 -21.98726 -175.77667 21451 ft 451 kts 231°
2026-04-24 15:44 -22.00769 -175.80193 21747 ft 452 kts 231°
2026-04-24 15:44 -22.02837 -175.82752 22036 ft 454 kts 231°
2026-04-24 15:44 -22.04914 -175.85323 22321 ft 455 kts 232°
2026-04-24 15:44 -22.06997 -175.87903 22591 ft 457 kts 232°
2026-04-24 15:45 -22.09088 -175.90493 22884 ft 458 kts 232°
2026-04-24 15:45 -22.11188 -175.93096 23193 ft 458 kts 232°
2026-04-24 15:45 -22.13287 -175.95699 23439 ft 460 kts 232°
2026-04-24 15:45 -22.15394 -175.98313 23649 ft 462 kts 232°
2026-04-24 15:46 -22.17507 -176.00937 23842 ft 463 kts 232°
2026-04-24 15:46 -22.19598 -176.03535 24051 ft 464 kts 232°
2026-04-24 15:46 -22.21717 -176.06167 24259 ft 465 kts 232°
2026-04-24 15:46 -22.23848 -176.08816 24454 ft 466 kts 232°
2026-04-24 15:47 -22.25975 -176.11462 24641 ft 467 kts 232°
2026-04-24 15:47 -22.28107 -176.14115 24828 ft 468 kts 232°
2026-04-24 15:47 -22.30247 -176.16780 25013 ft 469 kts 232°
2026-04-24 15:47 -22.32388 -176.19448 25176 ft 470 kts 232°
2026-04-24 15:48 -22.34508 -176.22091 25317 ft 472 kts 232°
2026-04-24 15:48 -22.36665 -176.24781 25489 ft 473 kts 232°
2026-04-24 15:48 -22.38820 -176.27470 25670 ft 474 kts 232°
2026-04-24 15:48 -22.40985 -176.30172 25841 ft 475 kts 232°
2026-04-24 15:49 -22.43144 -176.32868 26089 ft 473 kts 233°
2026-04-24 15:49 -22.45299 -176.35561 26318 ft 473 kts 233°
2026-04-24 15:49 -22.47456 -176.38257 26450 ft 474 kts 233°
2026-04-24 15:49 -22.49621 -176.40967 26560 ft 476 kts 233°
2026-04-24 15:50 -22.51759 -176.43643 26702 ft 476 kts 233°
2026-04-24 15:50 -22.53924 -176.46354 26905 ft 475 kts 233°
2026-04-24 15:50 -22.56082 -176.49056 27148 ft 474 kts 233°
2026-04-24 15:50 -22.58238 -176.51758 27371 ft 473 kts 233°
2026-04-24 15:51 -22.60386 -176.54452 27584 ft 473 kts 233°
2026-04-24 15:51 -22.62533 -176.57146 27808 ft 472 kts 233°
2026-04-24 15:51 -22.64679 -176.59842 27933 ft 474 kts 233°
2026-04-24 15:51 -22.66837 -176.62554 28097 ft 475 kts 233°
2026-04-24 15:52 -22.68988 -176.65258 28353 ft 473 kts 233°
2026-04-24 15:52 -22.71132 -176.67953 28626 ft 472 kts 233°
2026-04-24 15:52 -22.73272 -176.70645 28884 ft 471 kts 233°
2026-04-24 15:52 -22.75412 -176.73338 29147 ft 470 kts 233°
2026-04-24 15:53 -22.77536 -176.76011 29571 ft 465 kts 233°
2026-04-24 15:53 -22.79642 -176.78664 29949 ft 463 kts 233°
2026-04-24 15:53 -22.81739 -176.81308 30202 ft 462 kts 233°
2026-04-24 15:53 -22.83810 -176.83922 30404 ft 463 kts 233°
2026-04-24 15:54 -22.85905 -176.86567 30651 ft 461 kts 233°
2026-04-24 15:54 -22.87997 -176.89208 30937 ft 460 kts 233°
2026-04-24 15:54 -22.90076 -176.91834 31234 ft 458 kts 233°
2026-04-24 15:54 -22.92154 -176.94462 31513 ft 457 kts 233°
2026-04-24 15:55 -22.94198 -176.97046 31738 ft 457 kts 234°
2026-04-24 15:55 -22.96270 -176.99669 31983 ft 457 kts 234°
2026-04-24 15:55 -22.98334 -177.02282 32298 ft 455 kts 234°
2026-04-24 15:55 -23.00387 -177.04881 32632 ft 452 kts 234°
2026-04-24 15:56 -23.02434 -177.07475 32956 ft 451 kts 234°
2026-04-24 15:56 -23.04474 -177.10062 33257 ft 449 kts 234°
2026-04-24 15:56 -23.06505 -177.12639 33573 ft 448 kts 234°
2026-04-24 15:56 -23.08529 -177.15207 33930 ft 446 kts 234°
2026-04-24 15:57 -23.10508 -177.17719 34351 ft 441 kts 234°
2026-04-24 15:57 -23.12499 -177.20247 34650 ft 439 kts 234°
2026-04-24 15:57 -23.14485 -177.22773 34851 ft 440 kts 234°
2026-04-24 15:57 -23.16471 -177.25301 35023 ft 441 kts 235°
2026-04-24 15:58 -23.18466 -177.27841 35253 ft 440 kts 235°
2026-04-24 15:58 -23.20448 -177.30364 35520 ft 438 kts 235°
2026-04-24 15:58 -23.22422 -177.32878 35798 ft 437 kts 235°
2026-04-24 15:58 -23.24396 -177.35394 35969 ft 438 kts 235°
2026-04-24 15:59 -23.28364 -177.40459 36056 ft 441 kts 235°
2026-04-24 15:59 -23.32344 -177.45537 36056 ft 438 kts 235°
2026-04-24 16:00 -23.36292 -177.50579 36065 ft 436 kts 235°
2026-04-24 16:00 -23.40197 -177.55574 36065 ft 435 kts 235°
2026-04-24 16:01 -23.44113 -177.60589 36068 ft 434 kts 236°
2026-04-24 16:01 -23.48025 -177.65604 36068 ft 434 kts 236°
2026-04-24 16:02 -23.51935 -177.70621 36069 ft 433 kts 236°
2026-04-24 16:02 -23.55813 -177.75602 36072 ft 434 kts 236°
2026-04-24 16:03 -23.59721 -177.80627 36075 ft 435 kts 236°
2026-04-24 16:03 -23.63641 -177.85672 36077 ft 436 kts 236°
2026-04-24 16:04 -23.67566 -177.90729 36077 ft 437 kts 236°
2026-04-24 16:04 -23.71505 -177.95807 36077 ft 438 kts 236°
2026-04-24 16:05 -23.77392 -178.03406 36088 ft 438 kts 236°
2026-04-24 16:06 -23.83288 -178.11029 36086 ft 437 kts 236°
2026-04-24 16:07 -23.89175 -178.18654 36087 ft 437 kts 236°
2026-04-24 16:07 -23.95026 -178.26244 36087 ft 436 kts 236°
2026-04-24 16:08 -24.00889 -178.33860 36093 ft 436 kts 236°
2026-04-24 16:09 -24.06754 -178.41492 36118 ft 436 kts 236°
2026-04-24 16:09 -24.10622 -178.46530 36096 ft 434 kts 236°
2026-04-24 16:11 -24.20315 -178.59181 36095 ft 433 kts 237°
2026-04-24 16:11 -24.24181 -178.64238 36095 ft 433 kts 237°
2026-04-24 16:12 -24.29966 -178.71812 36100 ft 433 kts 237°
2026-04-24 16:13 -24.35764 -178.79416 36104 ft 433 kts 237°
2026-04-24 16:14 -24.43463 -178.89529 36106 ft 432 kts 237°
2026-04-24 16:14 -24.49251 -178.97146 36104 ft 432 kts 237°
2026-04-24 16:15 -24.55007 -179.04734 36109 ft 432 kts 237°
2026-04-24 16:16 -24.60761 -179.12332 36107 ft 432 kts 237°
2026-04-24 16:17 -24.70378 -179.25056 36113 ft 432 kts 237°
2026-04-24 16:18 -24.78052 -179.35234 36113 ft 433 kts 237°
2026-04-24 16:19 -24.83828 -179.42909 36113 ft 434 kts 237°
2026-04-24 16:20 -24.89604 -179.50596 36113 ft 434 kts 237°
2026-04-24 16:20 -24.95353 -179.58260 36113 ft 434 kts 237°
2026-04-24 16:21 -25.01124 -179.65965 36123 ft 434 kts 238°
2026-04-24 16:22 -25.04962 -179.71095 36113 ft 432 kts 238°
2026-04-24 16:22 -25.10666 -179.78729 36113 ft 430 kts 238°
2026-04-24 16:23 -25.14468 -179.83827 36117 ft 429 kts 238°
2026-04-24 16:24 -25.20154 -179.91462 36115 ft 429 kts 238°
2026-04-24 16:24 -25.23302 -179.95694 36115 ft 428 kts 238°
2026-04-24 16:25 -25.27092 179.99208 36119 ft 428 kts 239°
2026-04-24 16:25 -25.30882 179.94102 36124 ft 429 kts 239°
2026-04-24 16:26 -25.36531 179.86482 36126 ft 428 kts 240°
2026-04-24 16:27 -25.42193 179.78834 36121 ft 428 kts 240°
2026-04-24 16:27 -25.45960 179.73738 36123 ft 427 kts 240°
2026-04-24 16:28 -25.49724 179.68640 36122 ft 427 kts 240°
2026-04-24 16:28 -25.55345 179.61017 36126 ft 427 kts 240°
2026-04-24 16:29 -25.59105 179.55910 36124 ft 428 kts 240°
2026-04-24 16:30 -25.66633 179.45670 36133 ft 427 kts 240°
2026-04-24 16:30 -25.70365 179.40587 36124 ft 426 kts 240°
2026-04-24 16:31 -25.74101 179.35492 36123 ft 425 kts 240°
2026-04-24 16:31 -25.77826 179.30403 36127 ft 424 kts 240°
2026-04-24 16:32 -25.81549 179.25313 36123 ft 424 kts 240°
2026-04-24 16:32 -25.85246 179.20254 36127 ft 424 kts 241°
2026-04-24 16:33 -25.88968 179.15151 36132 ft 425 kts 241°
2026-04-24 16:33 -25.92694 179.10040 36135 ft 426 kts 241°
2026-04-24 16:34 -25.96429 179.04911 36145 ft 427 kts 241°
2026-04-24 16:34 -26.00496 178.99999 36136 ft 442 kts 231°
2026-04-24 16:35 -26.02965 178.97961 36132 ft 455 kts 222°
2026-04-24 16:35 -26.05702 178.96158 36144 ft 457 kts 221°
2026-04-24 16:35 -26.11254 178.92635 36133 ft 458 kts 220°
2026-04-24 16:36 -26.16800 178.89110 36138 ft 458 kts 221°
2026-04-24 16:36 -26.22317 178.85557 36139 ft 457 kts 221°
2026-04-24 16:37 -26.27786 178.82009 36158 ft 457 kts 221°
2026-04-24 16:37 -26.33296 178.78425 36143 ft 457 kts 221°
2026-04-24 16:38 -26.38800 178.74842 36143 ft 457 kts 221°
2026-04-24 16:38 -26.44286 178.71268 36143 ft 457 kts 221°
2026-04-24 16:39 -26.49780 178.67685 36143 ft 457 kts 221°
2026-04-24 16:39 -26.55239 178.64121 36145 ft 456 kts 221°
2026-04-24 16:40 -26.60722 178.60536 36149 ft 457 kts 221°
2026-04-24 16:40 -26.66212 178.56945 36145 ft 456 kts 221°
2026-04-24 16:41 -26.71691 178.53355 36144 ft 456 kts 221°
2026-04-24 16:41 -26.77139 178.49783 36145 ft 456 kts 221°
2026-04-24 16:42 -26.82618 178.46186 36146 ft 456 kts 221°
2026-04-24 16:42 -26.88105 178.42578 36179 ft 457 kts 221°
2026-04-24 16:43 -26.93598 178.38962 36159 ft 458 kts 221°
2026-04-24 16:43 -26.99063 178.35362 36155 ft 458 kts 221°
2026-04-24 16:44 -27.04569 178.31731 36155 ft 458 kts 221°
2026-04-24 16:44 -27.10065 178.28102 36155 ft 459 kts 221°
2026-04-24 16:45 -27.15568 178.24465 36158 ft 459 kts 221°
2026-04-24 16:45 -27.21076 178.20818 36165 ft 459 kts 221°
2026-04-24 16:46 -27.26559 178.17185 36159 ft 460 kts 221°
2026-04-24 16:46 -27.32081 178.13522 36157 ft 460 kts 221°
2026-04-24 16:47 -27.37606 178.09853 36163 ft 460 kts 221°
2026-04-24 16:47 -27.43124 178.06179 36158 ft 461 kts 221°
2026-04-24 16:48 -27.48645 178.02505 36181 ft 461 kts 223°
2026-04-24 16:48 -27.54164 177.98830 36166 ft 460 kts 223°
2026-04-24 16:49 -27.59668 177.95160 36163 ft 458 kts 223°
2026-04-24 16:49 -27.65149 177.91499 36166 ft 457 kts 223°
2026-04-24 16:50 -27.70589 177.87860 36173 ft 457 kts 223°
2026-04-24 16:50 -27.76057 177.84197 36167 ft 456 kts 223°
2026-04-24 16:51 -27.81526 177.80531 36168 ft 456 kts 223°
2026-04-24 16:51 -27.86948 177.76891 36170 ft 456 kts 223°
2026-04-24 16:52 -27.92417 177.73215 36175 ft 456 kts 223°
2026-04-24 16:52 -27.97874 177.69543 36170 ft 456 kts 223°
2026-04-24 16:53 -28.03300 177.65887 36174 ft 457 kts 223°
2026-04-24 16:53 -28.08774 177.62194 36168 ft 457 kts 223°
2026-04-24 16:54 -28.14254 177.58495 36172 ft 458 kts 223°
2026-04-24 16:54 -28.19694 177.54817 36177 ft 458 kts 223°
2026-04-24 16:55 -28.25175 177.51108 36177 ft 458 kts 223°
2026-04-24 16:55 -28.30659 177.47391 36177 ft 458 kts 223°
2026-04-24 16:56 -28.36103 177.43698 36202 ft 458 kts 223°
2026-04-24 16:56 -28.41566 177.39988 36186 ft 457 kts 223°
2026-04-24 16:57 -28.47021 177.36279 36180 ft 456 kts 223°
2026-04-24 16:57 -28.52455 177.32578 36195 ft 455 kts 224°
2026-04-24 16:58 -28.57885 177.28874 36181 ft 455 kts 224°
2026-04-24 16:58 -28.63317 177.25166 36183 ft 455 kts 224°
2026-04-24 16:59 -28.68710 177.21480 36186 ft 455 kts 224°
2026-04-24 17:00 -28.76834 177.15919 36184 ft 454 kts 224°
2026-04-24 17:00 -28.84957 177.10348 36189 ft 453 kts 224°
2026-04-24 17:01 -28.93030 177.04799 36212 ft 453 kts 224°
2026-04-24 17:02 -29.01384 176.99567 36237 ft 473 kts 212°
2026-04-24 17:02 -29.04609 176.98507 36450 ft 484 kts 206°
2026-04-24 17:02 -29.07841 176.97599 36745 ft 483 kts 206°
2026-04-24 17:03 -29.14362 176.95801 37203 ft 482 kts 206°
2026-04-24 17:03 -29.17624 176.94883 37190 ft 483 kts 206°
2026-04-24 17:04 -29.24146 176.93016 37209 ft 481 kts 207°
2026-04-24 17:04 -29.33857 176.90196 37195 ft 478 kts 207°
2026-04-24 17:05 -29.40278 176.88322 37255 ft 481 kts 207°
2026-04-24 17:05 -29.46767 176.86428 37769 ft 479 kts 207°
2026-04-24 17:06 -29.49993 176.85490 38063 ft 477 kts 207°
2026-04-24 17:06 -29.56414 176.83620 38196 ft 475 kts 208°
2026-04-24 17:06 -29.59614 176.82684 38192 ft 474 kts 208°
2026-04-24 17:07 -29.66014 176.80809 38199 ft 474 kts 208°
2026-04-24 17:08 -29.78762 176.77069 38198 ft 474 kts 208°
2026-04-24 17:08 -29.85158 176.75190 38203 ft 474 kts 208°
2026-04-24 17:09 -29.97945 176.71429 38194 ft 473 kts 208°
2026-04-24 17:10 -30.10655 176.67678 38203 ft 472 kts 209°
2026-04-24 17:12 -30.36047 176.60156 38227 ft 470 kts 209°